Stampede Pass, WA

1:28 PM PDT on May 26, 2017 (GMT -0700)
Stampede Pass

Weather History for KSMP - October, 2011

Change the Weather History Date:

Wednesday, October 5, 2011

  Actual Average Record
Temperature  
Mean Temperature 38 °F -  
Max Temperature 42 °F 50 °F 68 °F (2004)
Min Temperature 35 °F 38 °F 32 °F (2007)
Degree Days  
Heating Degree Days 27    
Moisture  
Dew Point 38 °F    
Average Humidity 99    
Maximum Humidity 100    
Minimum Humidity 93    
Precipitation  
Precipitation 0.57 in - - ()
Sea Level Pressure  
Sea Level Pressure 29.53 in    
Wind  
Wind Speed 4 mph (West)    
Max Wind Speed 8 mph    
Max Gust Speed -    
Visibility 1 miles    
Events Fog , Rain    
Averages and records for this station are not official NWS values.
T = Trace of Precipitation, MM = Missing Value Source: NWS Daily Summary

Daily Weather History Graph

Daily Weather History Graph

Search for Another Location

Airport or City:

Trip Planner

Search our weather history database for the weather conditions in past years. The results will help you decide how hot, cold, wet, or windy it might be!

Date:

Astronomy

Oct. 05, 2011 Rise Set
Actual Time 7:09 AM PDT 6:37 PM PDT
Civil Twilight 6:38 AM PDT 7:07 PM PDT
Nautical Twilight 6:03 AM PDT 7:43 PM PDT
Astronomical Twilight 5:27 AM PDT 8:18 PM PDT
Moon 3:41 PM PDT (10/5) 12:37 AM PDT (10/5)
Length of Visible Light 12h 28m
Length of Day
11h 27m
Waxing Gibbous, 67% of the Moon is Illuminated
Oct 5
Waxing Gibbous
Oct 11
Full
Oct 19
Last Quarter
Oct 26
New
Nov 2
First Quarter

Hourly Weather History & Observations

Time (PDT) Temp. Windchill Dew Point Humidity Pressure Visibility Wind Dir Wind Speed Gust Speed Precip Events Conditions
12:56 AM 41.0 °F 36.4 °F 39.9 °F 96% 29.44 in 0.8 mi Variable 6.9 mph - 0.01 in   Overcast
1:22 AM 41.0 °F 37.1 °F 39.2 °F 93% 29.46 in 1.8 mi Variable 5.8 mph - N/A   Overcast
1:27 AM 41.0 °F 37.1 °F 39.2 °F 93% 29.46 in 3.0 mi Variable 5.8 mph - N/A   Overcast
1:34 AM 41.0 °F 38.0 °F 39.2 °F 93% 29.46 in 5.0 mi Variable 4.6 mph - N/A   Overcast
1:48 AM 41.0 °F 37.1 °F 39.2 °F 93% 29.46 in 10.0 mi Variable 5.8 mph - N/A   Overcast
1:56 AM 41.0 °F 38.0 °F 39.9 °F 96% 29.47 in 10.0 mi Variable 4.6 mph - N/A   Overcast
2:56 AM 41.0 °F - 39.9 °F 96% 29.45 in 6.0 mi Calm Calm - 0.01 in Rain Light Rain
3:50 AM 39.2 °F - 39.2 °F 100% 29.45 in 1.8 mi Calm Calm - 0.01 in   Overcast
3:56 AM 39.9 °F 37.8 °F 39.9 °F 100% 29.45 in 1.0 mi Variable 3.5 mph - 0.01 in   Overcast
4:20 AM 39.2 °F 37.0 °F 39.2 °F 100% 29.45 in 2.0 mi Variable 3.5 mph - N/A   Overcast
4:28 AM 39.2 °F - 39.2 °F 100% 29.45 in 3.0 mi Calm Calm - N/A   Overcast
4:32 AM 39.2 °F - 39.2 °F 100% 29.45 in 1.8 mi Calm Calm - N/A   Overcast
4:56 AM 39.9 °F 36.7 °F 39.0 °F 97% 29.46 in 1.8 mi Variable 4.6 mph - 0.00 in Rain Light Rain
5:02 AM 39.2 °F - 39.2 °F 100% 29.45 in 0.8 mi Calm Calm - 0.00 in Rain Light Rain
5:56 AM 39.9 °F 37.8 °F 39.9 °F 100% 29.46 in 0.2 mi Variable 3.5 mph - 0.04 in Fog , Rain Light Rain
6:27 AM 39.2 °F - 39.2 °F 100% 29.45 in 0.5 mi Calm Calm - 0.03 in Fog , Rain Light Rain
6:56 AM 39.9 °F - 39.9 °F 100% 29.47 in 1.0 mi Calm Calm - 0.06 in Rain Light Rain
7:10 AM 39.2 °F - 39.2 °F 100% 29.45 in 0.8 mi Calm Calm - 0.00 in Rain Light Rain
7:56 AM 39.9 °F - 39.9 °F 100% 29.46 in 0.5 mi Calm Calm - 0.02 in Fog , Rain Light Rain
8:12 AM 39.2 °F - 39.2 °F 100% 29.45 in 0.2 mi Calm Calm - 0.01 in Fog , Rain Light Rain
8:32 AM 39.2 °F - 39.2 °F 100% 29.46 in 1.0 mi Calm Calm - 0.02 in Rain Light Rain
8:36 AM 39.2 °F - 39.2 °F 100% 29.46 in 2.0 mi Calm Calm - 0.02 in Rain Light Rain
8:44 AM 39.2 °F - 39.2 °F 100% 29.46 in 5.0 mi Calm Calm - 0.03 in Rain Light Rain
8:56 AM 39.0 °F - 39.0 °F 100% 29.49 in 4.0 mi Calm Calm - 0.04 in Rain Light Rain
9:07 AM 39.2 °F - 39.2 °F 100% 29.48 in 2.5 mi Calm Calm - 0.02 in Rain Light Rain
9:09 AM 39.2 °F 35.0 °F 39.2 °F 100% 29.48 in 1.2 mi NW 5.8 mph - 0.03 in Rain Rain
9:18 AM 37.4 °F 32.8 °F 37.4 °F 100% 29.48 in 1.5 mi NW 5.8 mph - 0.06 in Rain Rain
9:22 AM 37.4 °F 32.8 °F 35.6 °F 93% 29.48 in 3.0 mi Variable 5.8 mph - 0.07 in Rain Light Rain
9:31 AM 37.4 °F 32.8 °F 37.4 °F 100% 29.48 in 0.8 mi WNW 5.8 mph - 0.08 in Rain Light Rain
9:37 AM 37.4 °F 33.8 °F 37.4 °F 100% 29.48 in 0.2 mi Variable 4.6 mph - 0.09 in Fog , Rain Light Rain
9:56 AM 37.0 °F 33.3 °F 37.0 °F 100% 29.51 in 0.2 mi Variable 4.6 mph - 0.12 in Fog , Rain Light Rain
10:25 AM 37.4 °F - 37.4 °F 100% 29.49 in 0.2 mi Calm Calm - 0.01 in Fog Fog
10:56 AM 37.9 °F 34.4 °F 37.0 °F 97% 29.52 in 0.2 mi Variable 4.6 mph - 0.03 in Fog , Rain Light Rain
11:56 AM 37.0 °F 31.6 °F 37.0 °F 100% 29.53 in 0.2 mi Variable 6.9 mph - 0.03 in Fog , Rain Light Rain
12:07 PM 37.4 °F 32.8 °F 37.4 °F 100% 29.51 in 0.5 mi Variable 5.8 mph - 0.01 in Fog , Rain Light Rain
12:16 PM 37.4 °F 32.8 °F 37.4 °F 100% 29.51 in 2.0 mi Variable 5.8 mph - 0.01 in Rain Light Rain
12:27 PM 37.4 °F 33.8 °F 37.4 °F 100% 29.51 in 1.2 mi Variable 4.6 mph - 0.02 in   Overcast
12:35 PM 37.4 °F 33.8 °F 37.4 °F 100% 29.52 in 0.5 mi Variable 4.6 mph - 0.02 in Fog Fog
12:39 PM 37.4 °F 32.8 °F 37.4 °F 100% 29.52 in 0.5 mi Variable 5.8 mph - 0.02 in Fog Fog
12:49 PM 37.4 °F 32.8 °F 37.4 °F 100% 29.52 in 1.5 mi Variable 5.8 mph - 0.02 in   Overcast
12:56 PM 37.9 °F 34.4 °F 37.9 °F 100% 29.54 in 1.5 mi Variable 4.6 mph - 0.02 in   Overcast
1:02 PM 37.4 °F 33.8 °F 37.4 °F 100% 29.52 in 0.8 mi Variable 4.6 mph - N/A   Overcast
1:25 PM 37.4 °F 32.8 °F 37.4 °F 100% 29.52 in 0.2 mi Variable 5.8 mph - 0.01 in Fog , Rain Light Rain
1:52 PM 37.4 °F 34.9 °F 37.4 °F 100% 29.53 in 0.5 mi Variable 3.5 mph - 0.01 in Fog Fog
1:56 PM 37.9 °F 34.4 °F 37.9 °F 100% 29.55 in 0.5 mi Variable 4.6 mph - 0.02 in Fog Fog
2:08 PM 37.4 °F 33.8 °F 37.4 °F 100% 29.54 in 1.5 mi Variable 4.6 mph - 0.00 in Rain Light Rain
2:15 PM 37.4 °F 34.9 °F 37.4 °F 100% 29.53 in 0.8 mi Variable 3.5 mph - 0.00 in Rain Light Rain
2:30 PM 37.4 °F 34.9 °F 37.4 °F 100% 29.54 in 0.2 mi Variable 3.5 mph - 0.01 in Fog , Rain Light Rain
2:46 PM 37.4 °F 34.9 °F 37.4 °F 100% 29.54 in 0.2 mi Variable 3.5 mph - 0.02 in Fog , Rain Light Rain
2:54 PM 37.4 °F 32.8 °F 37.4 °F 100% 29.54 in 0.5 mi Variable 5.8 mph - 0.02 in Fog , Rain Light Rain
2:56 PM 37.9 °F 35.5 °F 37.9 °F 100% 29.56 in 0.5 mi Variable 3.5 mph - 0.02 in Fog , Rain Light Rain
3:00 PM 37.4 °F 33.8 °F 37.4 °F 100% 29.54 in 1.5 mi Variable 4.6 mph - 0.01 in   Overcast
3:03 PM 37.4 °F 34.9 °F 37.4 °F 100% 29.54 in 3.0 mi Variable 3.5 mph - 0.01 in   Overcast
3:19 PM 37.4 °F 33.8 °F 37.4 °F 100% 29.55 in 7.0 mi Variable 4.6 mph - 0.01 in   Overcast
3:25 PM 37.4 °F 33.8 °F 37.4 °F 100% 29.55 in 1.8 mi Variable 4.6 mph - 0.01 in   Overcast
3:31 PM 37.4 °F 33.8 °F 37.4 °F 100% 29.55 in 0.8 mi Variable 4.6 mph - 0.01 in   Overcast
3:37 PM 37.4 °F 34.9 °F 37.4 °F 100% 29.56 in 1.5 mi Variable 3.5 mph - 0.01 in   Overcast
3:43 PM 37.4 °F 33.8 °F 37.4 °F 100% 29.56 in 0.8 mi Variable 4.6 mph - 0.01 in Rain Light Rain
3:56 PM 37.9 °F 32.7 °F 37.0 °F 97% 29.59 in 0.2 mi Variable 6.9 mph - 0.01 in Fog Fog
4:04 PM 37.4 °F 32.8 °F 37.4 °F 100% 29.56 in 0.8 mi Variable 5.8 mph - N/A   Overcast
4:17 PM 37.4 °F 33.8 °F 37.4 °F 100% 29.56 in 0.2 mi Variable 4.6 mph - N/A Fog Fog
4:32 PM 37.4 °F 32.1 °F 37.4 °F 100% 29.57 in 0.2 mi SW 6.9 mph - N/A Fog Fog
4:39 PM 37.4 °F 32.1 °F 37.4 °F 100% 29.57 in 0.2 mi SW 6.9 mph - 0.01 in Fog Fog
4:56 PM 37.0 °F 33.3 °F 37.0 °F 100% 29.60 in 0.2 mi Variable 4.6 mph - 0.01 in Fog Fog
5:05 PM 37.4 °F 33.8 °F 37.4 °F 100% 29.58 in 0.2 mi Variable 4.6 mph - N/A Fog Fog
5:33 PM 37.4 °F 32.8 °F 37.4 °F 100% 29.58 in 0.2 mi Variable 5.8 mph - 0.01 in Fog Fog
5:56 PM 37.0 °F 33.3 °F 37.0 °F 100% 29.61 in 0.2 mi Variable 4.6 mph - 0.01 in Fog Fog
6:08 PM 37.4 °F 34.9 °F 37.4 °F 100% 29.59 in 0.2 mi Variable 3.5 mph - N/A Fog Fog
6:56 PM 37.0 °F 32.4 °F 36.0 °F 96% 29.64 in 0.2 mi Variable 5.8 mph - N/A Fog Fog
7:03 PM 37.4 °F 32.8 °F 35.6 °F 93% 29.62 in 0.2 mi Variable 5.8 mph - N/A Fog Fog
7:56 PM 36.0 °F 30.3 °F 36.0 °F 100% 29.66 in 0.2 mi Variable 6.9 mph - N/A Fog Fog
8:12 PM 35.6 °F 31.7 °F 35.6 °F 100% 29.64 in 0.5 mi Variable 4.6 mph - N/A Fog Fog
8:25 PM 35.6 °F 30.7 °F 35.6 °F 100% 29.63 in 0.2 mi Variable 5.8 mph - N/A Fog Fog
8:49 PM 35.6 °F 29.9 °F 35.6 °F 100% 29.64 in 0.5 mi Variable 6.9 mph - N/A Fog Fog
8:56 PM 36.0 °F 29.6 °F 36.0 °F 100% 29.68 in 0.5 mi West 8.1 mph - N/A Fog Fog
9:14 PM 37.4 °F 33.8 °F 35.6 °F 93% 29.65 in 0.2 mi Variable 4.6 mph - N/A Fog Fog
9:24 PM 37.4 °F 33.8 °F 35.6 °F 93% 29.65 in 0.2 mi Variable 4.6 mph - N/A Fog Fog
9:56 PM 36.0 °F 32.1 °F 36.0 °F 100% 29.71 in 0.2 mi Variable 4.6 mph - 0.01 in Fog Fog
10:56 PM 35.1 °F 28.6 °F 35.1 °F 100% 29.72 in 0.2 mi WSW 8.1 mph - 0.05 in Fog , Rain Light Rain
11:56 PM 35.1 °F 28.6 °F 35.1 °F 100% 29.73 in 0.2 mi SW 8.1 mph - 0.05 in Fog , Rain Light Rain